This is the latest recevied weather packets stored in our database for station/object W2SRH. If no packets are shown the sender has not sent any weather packets the latest 10 day(s).
| Time | Temp. | Humidity | Pressure | Rain* | Wind** | Luminosity | Snow |
|---|---|---|---|---|---|---|---|
| 1777511944 | 10° C | 86% | 1001.6 hPa | 1.02 mm | 0.45 m/s, 136° | - | - |
| 1777511345 | 10° C | 85% | 1001.5 hPa | 0.76 mm | 0 m/s | - | - |
| 1777510746 | 10° C | 83% | 1001.4 hPa | 0.51 mm | 0.45 m/s, 148° | - | - |
| 1777510146 | 10.56° C | 82% | 1001.7 hPa | 0.25 mm | 0 m/s | - | - |
| 1777509543 | 10.56° C | 81% | 1001.6 hPa | 0.25 mm | 0 m/s | - | - |
| 1777508944 | 10.56° C | 79% | 1001.7 hPa | 0.51 mm | 0 m/s | - | - |
| 1777508343 | 10.56° C | 79% | 1001.7 hPa | 0.76 mm | 0 m/s | - | - |
| 1777507747 | 10.56° C | 79% | 1001.8 hPa | 1.02 mm | 0 m/s | - | - |
| 1777507146 | 10.56° C | 78% | 1001.6 hPa | 0.76 mm | 0 m/s | - | - |
| 1777506544 | 10.56° C | 76% | 1001.6 hPa | 0.76 mm | 0 m/s | - | - |
| 1777505943 | 11.11° C | 73% | 1001.4 hPa | 0.51 mm | 0 m/s | - | - |
| 1777505343 | 11.11° C | 70% | 1001.1 hPa | 0.25 mm | 0.45 m/s, 146° | - | - |
| 1777504745 | 11.67° C | 67% | 1001.3 hPa | 0 mm | 0.45 m/s, 143° | - | - |
| 1777503545 | 13.33° C | 58% | 1001.5 hPa | 0 mm | 0.89 m/s, 158° | - | - |
| 1777502947 | 13.89° C | 56% | 1001.7 hPa | 0 mm | 0.45 m/s, 166° | - | - |
| 1777502344 | 13.89° C | 55% | 1001.5 hPa | 0 mm | 0.89 m/s, 155° | - | - |
| 1777501744 | 14.44° C | 55% | 1001.6 hPa | 0 mm | 0.89 m/s, 165° | - | - |
| 1777501144 | 14.44° C | 55% | 1001.8 hPa | 0 mm | 0.45 m/s, 164° | - | - |
| 1777500544 | 14.44° C | 55% | 1001.7 hPa | 0 mm | 0.89 m/s, 162° | - | - |
| 1777499944 | 15° C | 53% | 1001.7 hPa | 0 mm | 1.34 m/s, 163° | - | - |
| 1777499344 | 15° C | 52% | 1001.7 hPa | 0 mm | 0.89 m/s, 159° | - | - |
| 1777498744 | 15.56° C | 52% | 1001.8 hPa | 0 mm | 0.89 m/s, 178° | - | - |
| 1777498143 | 15.56° C | 52% | 1001.9 hPa | 0 mm | 0.89 m/s, 185° | - | - |
| 1777497544 | 16.11° C | 52% | 1001.8 hPa | 0 mm | 0.45 m/s, 167° | - | - |
| 1777496944 | 16.11° C | 50% | 1001.8 hPa | 0 mm | 0.45 m/s, 203° | - | - |
* Rain latest hour (hover to see other rain measurements)
** Current wind speed in m/s (hover to see current wind gust speed)